Location: Noordwijk
(52.2400°N, 4.4500°E)
Time: 12:07:13
(UTC+00:00)

VELOX 1 - Pass Details

Date: 02 December 2022
Orbit: 621 x 635 km, 98.4° (Epoch: 29 January)

Event Time Altitude Azimuth Distance (km) Brightness Sun altitude
Rises 05:56:43 0° 210° (SSW) 2,926 ? -13.5°
Reaches altitude 10° 05:59:41 10° 231° (SW) 2,020 ? -13.1°
Enters shadow 06:02:06 16° 265° (W) 1,650 ? -12.7°
